| time (UTC) | temp F | wind direction | speed knots | gust knots | rain 1hr in | rain 24hr in | rain mn in | humidity % | barometer mb |
| 20260510170307 | 87 | 22 | 2.6 | 7.0 | 0.00 | 0.00 | 0.00 | 78 | 1014.6 |
| 20260510165804 | 87 | 44 | 2.6 | 7.0 | 0.00 | 0.00 | 0.00 | 78 | 1014.6 |
| 20260510165300 | 87 | 44 | 2.6 | 7.0 | 0.00 | 0.00 | 0.00 | 78 | 1014.6 |
| 20260510164757 | 87 | 48 | 1.7 | 7.0 | 0.00 | 0.00 | 0.00 | 80 | 1014.6 |
| 20260510164239 | 86 | 40 | 2.6 | 7.0 | 0.00 | 0.00 | 0.00 | 79 | 1014.6 |
| 20260510163736 | 86 | 43 | 1.7 | 7.0 | 0.00 | 0.00 | 0.00 | 78 | 1014.6 |
| 20260510163233 | 86 | 51 | 2.6 | 6.1 | 0.00 | 0.00 | 0.00 | 79 | 1014.6 |
| 20260510162730 | 86 | 47 | 1.7 | 6.1 | 0.00 | 0.00 | 0.00 | 82 | 1014.6 |
| 20260510162227 | 86 | 31 | 2.6 | 6.1 | 0.00 | 0.00 | 0.00 | 80 | 1014.6 |
| 20260510161706 | 86 | 19 | 2.6 | 7.0 | 0.00 | 0.00 | 0.00 | 82 | 1014.6 |
| 20260510161148 | 85 | 49 | 2.6 | 8.7 | 0.00 | 0.00 | 0.00 | 82 | 1014.6 |
| 20260510160644 | 85 | 69 | 1.7 | 8.7 | 0.00 | 0.00 | 0.00 | 82 | 1014.9 |
| 20260510160036 | 85 | 59 | 1.7 | 8.7 | 0.00 | 0.00 | 0.00 | 84 | 1014.9 |
| 20260510155534 | 85 | 53 | 3.5 | 8.7 | 0.00 | 0.00 | 0.00 | 84 | 1014.9 |
| 20260510155031 | 84 | 44 | 2.6 | 6.1 | 0.00 | 0.00 | 0.00 | 84 | 1014.9 |
| 20260510154527 | 84 | 71 | 1.7 | 6.1 | 0.00 | 0.00 | 0.00 | 84 | 1014.9 |
| 20260510154024 | 84 | 37 | 2.6 | 6.1 | 0.00 | 0.00 | 0.00 | 85 | 1014.9 |
| 20260510153521 | 84 | 55 | 1.7 | 5.2 | 0.00 | 0.00 | 0.00 | 85 | 1014.9 |
| 20260510153000 | 84 | 19 | 2.6 | 5.2 | 0.00 | 0.00 | 0.00 | 85 | 1014.9 |
| 20260510152439 | 84 | 62 | 1.7 | 5.2 | 0.00 | 0.00 | 0.00 | 85 | 1015.2 |
| 20260510151917 | 83 | 24 | 1.7 | 6.1 | 0.00 | 0.00 | 0.00 | 86 | 1015.2 |
| 20260510151356 | 83 | 41 | 0.9 | 6.1 | 0.00 | 0.00 | 0.00 | 86 | 1014.9 |
| 20260510150853 | 83 | 52 | 0.9 | 6.1 | 0.00 | 0.00 | 0.00 | 86 | 1014.9 |
| 20260510150335 | 83 | 29 | 1.7 | 7.0 | 0.00 | 0.00 | 0.00 | 87 | 1014.9 |
| 20260510145832 | 82 | 107 | 0.9 | 7.0 | 0.00 | 0.00 | 0.00 | 87 | 1014.9 |
| 20260510145329 | 82 | 45 | 2.6 | 7.8 | 0.00 | 0.00 | 0.00 | 87 | 1014.9 |
| 20260510144755 | 82 | 339 | 0.9 | 7.8 | 0.00 | 0.00 | 0.00 | 88 | 1014.9 |
| 20260510144251 | 82 | 52 | 2.6 | 7.8 | 0.00 | 0.00 | 0.00 | 88 | 1014.9 |
| 20260510143749 | 82 | 65 | 1.7 | 7.8 | 0.00 | 0.00 | 0.00 | 87 | 1014.9 |
| 20260510143246 | 81 | 71 | 1.7 | 5.2 | 0.00 | 0.00 | 0.00 | 88 | 1015.2 |
| 20260510142743 | 81 | 48 | 1.7 | 5.2 | 0.00 | 0.00 | 0.00 | 89 | 1015.2 |
| 20260510142240 | 81 | 58 | 0.9 | 4.3 | 0.00 | 0.00 | 0.00 | 90 | 1014.9 |
| 20260510141647 | 80 | 21 | 0.9 | 4.3 | 0.00 | 0.00 | 0.00 | 90 | 1014.9 |
| 20260510141126 | 80 | 51 | 0.9 | 4.3 | 0.00 | 0.00 | 0.00 | 90 | 1014.9 |
| 20260510140623 | 80 | 49 | 0.9 | 4.3 | 0.00 | 0.00 | 0.00 | 90 | 1014.9 |
| 20260510140120 | 80 | 28 | 1.7 | 4.3 | 0.00 | 0.00 | 0.00 | 90 | 1014.9 |
| 20260510135617 | 80 | 35 | 1.7 | 4.3 | 0.00 | 0.00 | 0.00 | 90 | 1014.9 |
| 20260510135114 | 79 | 65 | 0.9 | 3.5 | 0.00 | 0.00 | 0.00 | 91 | 1014.9 |
| 20260510134610 | 78 | 13 | 1.7 | 3.5 | 0.00 | 0.00 | 0.00 | 92 | 1014.6 |
| 20260510134107 | 78 | 355 | 0.9 | 2.6 | 0.00 | 0.00 | 0.00 | 93 | 1014.6 |
| 20260510133604 | 78 | 24 | 0.0 | 2.6 | 0.00 | 0.00 | 0.00 | 93 | 1014.6 |
| 20260510133029 | 78 | 24 | 0.9 | 2.6 | 0.00 | 0.00 | 0.00 | 93 | 1014.6 |
| 20260510132526 | 77 | 16 | 0.9 | 2.6 | 0.00 | 0.00 | 0.00 | 93 | 1014.2 |
| 20260510132023 | 77 | 12 | 0.9 | 2.6 | 0.00 | 0.00 | 0.00 | 94 | 1014.2 |
| 20260510131501 | 77 | 12 | 0.9 | 2.6 | 0.00 | 0.00 | 0.00 | 94 | 1013.9 |
| 20260510130958 | 77 | 13 | 1.7 | 2.6 | 0.00 | 0.00 | 0.00 | 94 | 1013.9 |
| 20260510130454 | 77 | 350 | 0.0 | 0.0 | 0.00 | 0.00 | 0.00 | 94 | 1013.9 |
| 20260510125950 | 76 | 350 | 0.0 | 0.0 | 0.00 | 0.00 | 0.00 | 94 | 1013.5 |
| 20260510125345 | 76 | 350 | 0.0 | 0.0 | 0.00 | 0.00 | 0.00 | 94 | 1013.5 |
| 20260510124842 | 76 | 349 | 0.0 | 0.0 | 0.00 | 0.00 | 0.00 | 94 | 1013.5 |
| 20260510124339 | 76 | 349 | 0.0 | 0.0 | 0.00 | 0.00 | 0.00 | 94 | 1013.5 |
| 20260510123734 | 76 | 349 | 0.0 | 0.0 | 0.00 | 0.00 | 0.00 | 94 | 1013.2 |
| 20260510123057 | 76 | 349 | 0.0 | 0.0 | 0.00 | 0.00 | 0.00 | 94 | 1013.2 |
| 20260510122554 | 76 | 349 | 0.0 | 0.0 | 0.00 | 0.00 | 0.00 | 94 | 1013.2 |
| 20260510122051 | 76 | 349 | 0.0 | 0.0 | 0.00 | 0.00 | 0.00 | 94 | 1012.9 |
| 20260510121548 | 76 | 349 | 0.0 | 0.0 | 0.00 | 0.00 | 0.00 | 94 | 1012.9 |
| 20260510121044 | 76 | 350 | 0.0 | 0.0 | 0.00 | 0.00 | 0.00 | 94 | 1012.9 |
| 20260510120508 | 76 | 350 | 0.0 | 0.0 | 0.00 | 0.00 | 0.00 | 94 | 1012.9 |
| 20260510120004 | 76 | 350 | 0.0 | 0.0 | 0.00 | 0.00 | 0.00 | 94 | 1012.5 |
| 20260510115501 | 75 | 350 | 0.0 | 0.0 | 0.00 | 0.00 | 0.00 | 94 | 1012.5 |
| 20260510114927 | 75 | 350 | 0.0 | 0.0 | 0.00 | 0.00 | 0.00 | 94 | 1012.5 |
| 20260510114424 | 75 | 350 | 0.0 | 0.0 | 0.00 | 0.00 | 0.00 | 94 | 1012.2 |
| 20260510113921 | 75 | 350 | 0.0 | 0.0 | 0.00 | 0.00 | 0.00 | 94 | 1012.2 |
| 20260510113418 | 75 | 350 | 0.0 | 0.0 | 0.00 | 0.00 | 0.00 | 94 | 1012.2 |
| 20260510112812 | 75 | 350 | 0.0 | 0.0 | 0.00 | 0.00 | 0.00 | 94 | 1012.2 |
| 20260510112238 | 75 | 350 | 0.0 | 0.0 | 0.00 | 0.00 | 0.00 | 94 | 1012.2 |
| 20260510111735 | 75 | 350 | 0.0 | 0.0 | 0.00 | 0.00 | 0.00 | 94 | 1011.9 |
| 20260510111231 | 75 | 350 | 0.0 | 0.0 | 0.00 | 0.00 | 0.00 | 94 | 1011.9 |
| 20260510110728 | 75 | 350 | 0.0 | 0.0 | 0.00 | 0.00 | 0.00 | 94 | 1011.9 |
| 20260510110226 | 75 | 350 | 0.0 | 0.0 | 0.00 | 0.00 | 0.00 | 94 | 1011.9 |
| 20260510105722 | 75 | 350 | 0.0 | 0.0 | 0.00 | 0.00 | 0.00 | 94 | 1011.9 |
| 20260510105147 | 75 | 350 | 0.0 | 0.0 | 0.00 | 0.00 | 0.00 | 94 | 1011.5 |
| 20260510104644 | 75 | 350 | 0.0 | 0.0 | 0.00 | 0.00 | 0.00 | 94 | 1011.5 |
| 20260510104140 | 75 | 350 | 0.0 | 0.0 | 0.00 | 0.00 | 0.00 | 94 | 1011.5 |
| 20260510103636 | 75 | 350 | 0.0 | 0.0 | 0.00 | 0.00 | 0.00 | 94 | 1011.5 |
| 20260510103133 | 75 | 350 | 0.0 | 0.0 | 0.00 | 0.00 | 0.00 | 94 | 1011.5 |
| 20260510102629 | 75 | 350 | 0.0 | 0.0 | 0.00 | 0.00 | 0.00 | 95 | 1011.2 |
| 20260510102126 | 75 | 350 | 0.0 | 0.0 | 0.00 | 0.00 | 0.00 | 95 | 1011.2 |
| 20260510101623 | 75 | 350 | 0.0 | 0.0 | 0.00 | 0.00 | 0.00 | 95 | 1011.5 |
| 20260510101120 | 75 | 350 | 0.0 | 0.9 | 0.00 | 0.00 | 0.00 | 95 | 1011.2 |
| 20260510100617 | 75 | 350 | 0.0 | 0.9 | 0.00 | 0.00 | 0.00 | 95 | 1011.2 |
| 20260510100114 | 75 | 350 | 0.0 | 0.9 | 0.00 | 0.00 | 0.00 | 95 | 1011.2 |
| 20260510095551 | 75 | 350 | 0.9 | 0.9 | 0.00 | 0.00 | 0.00 | 95 | 1011.2 |
| 20260510095016 | 75 | 350 | 0.0 | 0.9 | 0.00 | 0.00 | 0.00 | 95 | 1011.2 |
| 20260510094513 | 75 | 316 | 0.0 | 0.9 | 0.00 | 0.00 | 0.00 | 95 | 1011.2 |
| 20260510093952 | 75 | 316 | 0.0 | 0.9 | 0.00 | 0.00 | 0.00 | 95 | 1011.2 |
| 20260510093448 | 75 | 302 | 0.0 | 0.0 | 0.00 | 0.00 | 0.00 | 95 | 1011.2 |
| 20260510092945 | 75 | 302 | 0.0 | 0.0 | 0.00 | 0.00 | 0.00 | 95 | 1011.2 |
| 20260510092443 | 75 | 302 | 0.0 | 0.0 | 0.00 | 0.00 | 0.00 | 94 | 1011.5 |
| 20260510091909 | 75 | 302 | 0.0 | 0.0 | 0.00 | 0.00 | 0.00 | 95 | 1011.2 |
| 20260510091406 | 74 | 302 | 0.0 | 0.0 | 0.00 | 0.00 | 0.00 | 95 | 1011.2 |
| 20260510090903 | 74 | 302 | 0.0 | 0.0 | 0.00 | 0.00 | 0.00 | 94 | 1011.2 |
| 20260510090400 | 74 | 302 | 0.0 | 0.0 | 0.00 | 0.00 | 0.00 | 94 | 1011.2 |
| 20260510085857 | 74 | 302 | 0.0 | 0.0 | 0.00 | 0.00 | 0.00 | 94 | 1011.2 |
| 20260510085353 | 74 | 302 | 0.0 | 0.0 | 0.00 | 0.00 | 0.00 | 94 | 1011.2 |
| 20260510084851 | 74 | 302 | 0.0 | 0.0 | 0.00 | 0.00 | 0.00 | 94 | 1011.2 |
| 20260510084348 | 74 | 302 | 0.0 | 0.0 | 0.00 | 0.00 | 0.00 | 94 | 1011.2 |
| 20260510083825 | 74 | 302 | 0.0 | 0.0 | 0.00 | 0.00 | 0.00 | 94 | 1011.2 |
| 20260510083322 | 74 | 302 | 0.0 | 0.0 | 0.00 | 0.00 | 0.00 | 94 | 1011.2 |
| 20260510082819 | 74 | 302 | 0.0 | 0.0 | 0.00 | 0.00 | 0.00 | 94 | 1011.2 |
| 20260510082316 | 74 | 302 | 0.0 | 0.0 | 0.00 | 0.00 | 0.00 | 94 | 1011.2 |
| 20260510081813 | 74 | 302 | 0.0 | 0.0 | 0.00 | 0.00 | 0.00 | 94 | 1011.2 |
| 20260510081309 | 74 | 302 | 0.0 | 0.0 | 0.00 | 0.00 | 0.00 | 94 | 1011.2 |
| 20260510080806 | 74 | 302 | 0.0 | 0.0 | 0.00 | 0.00 | 0.00 | 94 | 1011.2 |
| 20260510080233 | 74 | 302 | 0.0 | 0.0 | 0.00 | 0.00 | 0.00 | 94 | 1011.2 |
| 20260510075729 | 74 | 302 | 0.0 | 0.0 | 0.00 | 0.00 | 0.00 | 94 | 1011.2 |
| 20260510075226 | 74 | 302 | 0.0 | 0.0 | 0.00 | 0.00 | 0.00 | 94 | 1010.8 |
| 20260510074722 | 74 | 302 | 0.0 | 0.0 | 0.00 | 0.00 | 0.00 | 94 | 1010.8 |
| 20260510074219 | 75 | 302 | 0.0 | 0.0 | 0.00 | 0.00 | 0.00 | 93 | 1010.8 |
| 20260510073716 | 75 | 302 | 0.0 | 0.0 | 0.00 | 0.00 | 0.00 | 93 | 1010.8 |
| 20260510073213 | 75 | 302 | 0.0 | 0.0 | 0.00 | 0.00 | 0.00 | 93 | 1010.8 |
| 20260510072711 | 75 | 302 | 0.0 | 0.0 | 0.00 | 0.00 | 0.00 | 93 | 1010.8 |
| 20260510072208 | 75 | 302 | 0.0 | 1.7 | 0.00 | 0.00 | 0.00 | 93 | 1010.8 |
| 20260510071603 | 75 | 302 | 0.0 | 1.7 | 0.00 | 0.00 | 0.00 | 93 | 1010.8 |
| 20260510071100 | 75 | 302 | 0.0 | 1.7 | 0.00 | 0.00 | 0.00 | 93 | 1010.8 |
| 20260510070511 | 75 | 109 | 0.0 | 0.0 | 0.00 | 0.00 | 0.00 | 93 | 1011.2 |
| 20260510065949 | 75 | 109 | 0.0 | 0.0 | 0.00 | 0.00 | 0.00 | 93 | 1011.2 |
| 20260510065446 | 75 | 109 | 0.0 | 0.9 | 0.00 | 0.00 | 0.00 | 93 | 1011.2 |
| 20260510064942 | 75 | 109 | 0.0 | 0.9 | 0.00 | 0.00 | 0.00 | 93 | 1011.2 |
| 20260510064407 | 75 | 109 | 0.0 | 0.9 | 0.00 | 0.00 | 0.00 | 93 | 1011.2 |
| 20260510063904 | 75 | 109 | 0.0 | 0.9 | 0.00 | 0.00 | 0.00 | 93 | 1011.2 |
| 20260510063400 | 75 | 109 | 0.9 | 0.9 | 0.00 | 0.00 | 0.00 | 93 | 1011.2 |
| 20260510062857 | 75 | 109 | 0.0 | 0.9 | 0.00 | 0.00 | 0.00 | 93 | 1011.2 |
| 20260510062354 | 75 | 109 | 0.9 | 0.9 | 0.00 | 0.00 | 0.00 | 92 | 1011.2 |
| 20260510061852 | 75 | 109 | 0.9 | 0.9 | 0.00 | 0.00 | 0.00 | 92 | 1011.5 |
| 20260510061258 | 75 | 109 | 0.0 | 0.9 | 0.00 | 0.00 | 0.00 | 92 | 1011.5 |
| 20260510060724 | 75 | 109 | 0.0 | 0.9 | 0.00 | 0.00 | 0.00 | 93 | 1011.5 |
| 20260510060221 | 75 | 109 | 0.9 | 0.9 | 0.00 | 0.00 | 0.00 | 92 | 1011.5 |
| 20260510055718 | 75 | 109 | 0.0 | 0.9 | 0.00 | 0.00 | 0.00 | 92 | 1011.5 |
| 20260510055214 | 76 | 109 | 0.0 | 0.9 | 0.00 | 0.00 | 0.00 | 92 | 1011.5 |
| 20260510054711 | 76 | 109 | 0.9 | 0.9 | 0.00 | 0.00 | 0.00 | 93 | 1011.5 |
| 20260510054208 | 76 | 109 | 0.9 | 0.9 | 0.00 | 0.00 | 0.00 | 93 | 1011.5 |
| 20260510053705 | 76 | 109 | 0.9 | 0.9 | 0.00 | 0.00 | 0.00 | 92 | 1011.5 |
| 20260510053201 | 76 | 109 | 0.9 | 0.9 | 0.00 | 0.00 | 0.00 | 92 | 1011.5 |
| 20260510052658 | 76 | 109 | 0.9 | 0.9 | 0.00 | 0.00 | 0.00 | 92 | 1011.5 |
| 20260510052123 | 76 | 109 | 0.9 | 0.9 | 0.00 | 0.00 | 0.00 | 92 | 1011.9 |
| 20260510051620 | 76 | 113 | 0.9 | 0.9 | 0.00 | 0.00 | 0.00 | 92 | 1011.9 |
| 20260510051118 | 76 | 115 | 0.9 | 1.7 | 0.00 | 0.00 | 0.00 | 92 | 1011.9 |
| 20260510050615 | 76 | 115 | 0.9 | 2.6 | 0.00 | 0.00 | 0.00 | 92 | 1011.9 |
| 20260510050112 | 77 | 325 | 0.9 | 2.6 | 0.00 | 0.00 | 0.00 | 92 | 1011.9 |
| 20260510045553 | 77 | 80 | 0.9 | 2.6 | 0.00 | 0.00 | 0.00 | 92 | 1011.9 |
| 20260510045050 | 77 | 82 | 0.0 | 6.1 | 0.00 | 0.00 | 0.00 | 92 | 1011.9 |
| 20260510044516 | 77 | 321 | 0.0 | 6.1 | 0.00 | 0.00 | 0.00 | 92 | 1011.9 |
| 20260510044013 | 77 | 18 | 0.9 | 6.1 | 0.00 | 0.00 | 0.00 | 92 | 1012.2 |
| 20260510043510 | 77 | 40 | 0.9 | 6.1 | 0.00 | 0.00 | 0.00 | 92 | 1012.2 |
| 20260510042936 | 77 | 17 | 0.0 | 7.0 | 0.00 | 0.00 | 0.00 | 92 | 1012.2 |
| 20260510042433 | 77 | 352 | 0.9 | 7.0 | 0.00 | 0.00 | 0.00 | 92 | 1012.2 |
| 20260510041930 | 77 | 69 | 2.6 | 7.0 | 0.00 | 0.00 | 0.00 | 92 | 1012.5 |
| 20260510041426 | 77 | 17 | 0.0 | 0.9 | 0.00 | 0.00 | 0.00 | 92 | 1012.5 |
| 20260510040923 | 77 | 66 | 0.0 | 2.6 | 0.00 | 0.00 | 0.00 | 92 | 1012.5 |
| 20260510040420 | 77 | 63 | 0.0 | 2.6 | 0.00 | 0.00 | 0.00 | 92 | 1012.5 |
| 20260510035859 | 77 | 66 | 0.0 | 2.6 | 0.00 | 0.00 | 0.00 | 92 | 1012.5 |
| 20260510035356 | 77 | 63 | 0.0 | 2.6 | 0.00 | 0.00 | 0.00 | 92 | 1012.5 |
| 20260510034853 | 77 | 5 | 0.0 | 0.0 | 0.00 | 0.00 | 0.00 | 92 | 1012.2 |
| 20260510034350 | 77 | 103 | 0.0 | 0.0 | 0.00 | 0.00 | 0.00 | 92 | 1011.9 |
| 20260510033847 | 78 | 132 | 0.0 | 0.0 | 0.00 | 0.00 | 0.00 | 91 | 1011.9 |
| 20260510033343 | 78 | 21 | 0.0 | 1.7 | 0.00 | 0.00 | 0.00 | 91 | 1011.9 |
| 20260510032840 | 78 | 21 | 0.0 | 7.8 | 0.00 | 0.00 | 0.00 | 91 | 1012.2 |
| 20260510032336 | 78 | 348 | 0.0 | 7.8 | 0.00 | 0.00 | 0.00 | 91 | 1012.2 |
| 20260510031833 | 78 | 63 | 0.0 | 7.8 | 0.00 | 0.00 | 0.00 | 91 | 1012.2 |
| 20260510031330 | 78 | 78 | 2.6 | 7.8 | 0.00 | 0.00 | 0.00 | 91 | 1012.2 |
| 20260510030827 | 78 | 75 | 1.7 | 7.0 | 0.00 | 0.00 | 0.00 | 91 | 1012.2 |
| 20260510030325 | 78 | 93 | 3.5 | 7.0 | 0.00 | 0.00 | 0.00 | 91 | 1012.2 |
| 20260510025821 | 78 | 51 | 1.7 | 7.0 | 0.00 | 0.00 | 0.00 | 91 | 1011.9 |
| 20260510025318 | 79 | 75 | 1.7 | 7.0 | 0.00 | 0.00 | 0.00 | 91 | 1011.9 |
| 20260510024815 | 79 | 59 | 0.0 | 6.1 | 0.00 | 0.00 | 0.00 | 91 | 1011.9 |
| 20260510024312 | 79 | 35 | 5.2 | 6.1 | 0.00 | 0.00 | 0.00 | 90 | 1011.9 |
| 20260510023809 | 79 | 33 | 1.7 | 4.3 | 0.00 | 0.00 | 0.00 | 90 | 1011.9 |
| 20260510023307 | 79 | 62 | 0.0 | 3.5 | 0.00 | 0.00 | 0.00 | 90 | 1011.5 |
| 20260510022803 | 79 | 135 | 0.0 | 3.5 | 0.00 | 0.00 | 0.00 | 90 | 1011.5 |
| 20260510022300 | 79 | 344 | 0.0 | 0.0 | 0.00 | 0.00 | 0.00 | 90 | 1011.5 |
| 20260510021757 | 79 | 115 | 0.0 | 2.6 | 0.00 | 0.00 | 0.00 | 90 | 1011.5 |
| 20260510021252 | 79 | 56 | 0.0 | 2.6 | 0.00 | 0.00 | 0.00 | 89 | 1011.2 |
| 20260510020749 | 79 | 51 | 0.0 | 3.5 | 0.00 | 0.00 | 0.00 | 89 | 1011.2 |
| 20260510020246 | 79 | 42 | 0.0 | 3.5 | 0.00 | 0.00 | 0.00 | 89 | 1010.8 |
| 20260510015723 | 79 | 5 | 0.0 | 3.5 | 0.00 | 0.00 | 0.00 | 88 | 1010.5 |
| 20260510015150 | 79 | 55 | 1.7 | 3.5 | 0.00 | 0.00 | 0.00 | 87 | 1010.2 |
| 20260510014646 | 79 | 30 | 0.0 | 0.9 | 0.00 | 0.00 | 0.00 | 86 | 1010.5 |
| 20260510014144 | 79 | 76 | 0.0 | 0.9 | 0.00 | 0.00 | 0.00 | 85 | 1010.2 |
| 20260510013640 | 79 | 329 | 0.0 | 0.9 | 0.00 | 0.00 | 0.00 | 85 | 1010.2 |
| 20260510013137 | 79 | 355 | 0.0 | 0.0 | 0.00 | 0.00 | 0.00 | 85 | 1010.2 |
| 20260510012634 | 80 | 360 | 0.0 | 0.0 | 0.00 | 0.00 | 0.00 | 85 | 1009.8 |
| 20260510012131 | 80 | 329 | 0.0 | 0.0 | 0.00 | 0.00 | 0.00 | 85 | 1009.5 |
| 20260510011628 | 80 | 329 | 0.0 | 0.0 | 0.00 | 0.00 | 0.00 | 84 | 1009.5 |
| 20260510011125 | 80 | 342 | 0.0 | 0.0 | 0.00 | 0.00 | 0.00 | 84 | 1009.5 |
| 20260510010622 | 80 | 180 | 0.0 | 0.0 | 0.00 | 0.00 | 0.00 | 84 | 1009.1 |
| 20260510010119 | 80 | 180 | 0.0 | 0.0 | 0.00 | 0.00 | 0.00 | 84 | 1008.8 |
| 20260510005617 | 80 | 180 | 0.0 | 0.0 | 0.00 | 0.00 | 0.00 | 83 | 1009.1 |
| 20260510005114 | 81 | 183 | 0.0 | 0.0 | 0.00 | 0.00 | 0.00 | 82 | 1009.1 |
| 20260510004610 | 81 | 183 | 0.0 | 0.0 | 0.00 | 0.00 | 0.00 | 81 | 1009.1 |
| 20260510004107 | 81 | 183 | 0.0 | 0.0 | 0.00 | 0.00 | 0.00 | 81 | 1009.1 |
| 20260510003514 | 82 | 275 | 0.0 | 0.0 | 0.00 | 0.00 | 0.00 | 83 | 1009.1 |
| 20260510003011 | 83 | 275 | 0.0 | 0.0 | 0.00 | 0.00 | 0.00 | 84 | 1009.1 |
| 20260510002507 | 83 | 275 | 0.0 | 0.0 | 0.00 | 0.00 | 0.00 | 83 | 1008.8 |
| 20260510002004 | 83 | 355 | 0.0 | 0.0 | 0.00 | 0.00 | 0.00 | 82 | 1008.8 |
| 20260510001501 | 83 | 360 | 0.0 | 0.0 | 0.00 | 0.00 | 0.00 | 81 | 1008.8 |
| 20260510000938 | 84 | 5 | 0.0 | 0.0 | 0.00 | 0.00 | 0.00 | 79 | 1008.8 |
| 20260510000435 | 84 | 5 | 0.0 | 0.0 | 0.00 | 0.00 | 0.00 | 78 | 1008.8 |
| 20260509235932 | 85 | 28 | 0.0 | 0.9 | 0.00 | 0.00 | 0.00 | 78 | 1008.5 |
| 20260509235428 | 86 | 19 | 0.0 | 0.9 | 0.00 | 0.00 | 0.00 | 76 | 1008.5 |
| 20260509234925 | 86 | 19 | 0.0 | 0.9 | 0.00 | 0.00 | 0.00 | 75 | 1008.5 |
| 20260509234422 | 86 | 19 | 0.0 | 1.7 | 0.00 | 0.00 | 0.00 | 76 | 1008.5 |
| 20260509233919 | 87 | 313 | 0.0 | 1.7 | 0.00 | 0.00 | 0.00 | 76 | 1008.5 |
| 20260509233416 | 87 | 313 | 0.0 | 1.7 | 0.00 | 0.00 | 0.00 | 76 | 1008.5 |
| 20260509232913 | 87 | 20 | 1.7 | 1.7 | 0.00 | 0.00 | 0.00 | 76 | 1008.5 |
| 20260509232410 | 87 | 11 | 0.0 | 1.7 | 0.00 | 0.00 | 0.00 | 77 | 1008.5 |
| 20260509231907 | 87 | 5 | 1.7 | 1.7 | 0.00 | 0.00 | 0.00 | 77 | 1008.5 |
| 20260509231403 | 87 | 11 | 0.0 | 0.0 | 0.00 | 0.00 | 0.00 | 76 | 1008.5 |
| 20260509230901 | 87 | 344 | 0.0 | 0.0 | 0.00 | 0.00 | 0.00 | 77 | 1008.5 |
| 20260509230325 | 87 | 346 | 0.0 | 0.0 | 0.00 | 0.00 | 0.00 | 78 | 1008.5 |
| 20260509225823 | 87 | 339 | 0.0 | 0.0 | 0.00 | 0.00 | 0.00 | 78 | 1008.5 |
| 20260509225319 | 88 | 241 | 0.0 | 0.0 | 0.00 | 0.00 | 0.00 | 78 | 1008.5 |
| 20260509224816 | 88 | 321 | 0.0 | 0.0 | 0.00 | 0.00 | 0.00 | 78 | 1008.1 |
| 20260509224313 | 88 | 97 | 0.0 | 0.0 | 0.00 | 0.00 | 0.00 | 78 | 1008.5 |
| 20260509223810 | 88 | 124 | 0.0 | 0.0 | 0.00 | 0.00 | 0.00 | 79 | 1008.5 |
| 20260509223306 | 88 | 49 | 0.0 | 0.0 | 0.00 | 0.00 | 0.00 | 79 | 1008.1 |
| 20260509222803 | 88 | 20 | 0.0 | 0.0 | 0.00 | 0.00 | 0.00 | 79 | 1008.1 |
| 20260509222229 | 87 | 20 | 0.0 | 0.0 | 0.00 | 0.00 | 0.00 | 80 | 1008.1 |
| 20260509221655 | 87 | 53 | 0.0 | 0.0 | 0.00 | 0.00 | 0.00 | 80 | 1008.1 |
| 20260509221120 | 87 | 360 | 0.0 | 0.0 | 0.00 | 0.00 | 0.00 | 81 | 1008.1 |
| 20260509220617 | 87 | 360 | 0.0 | 0.9 | 0.00 | 0.00 | 0.00 | 81 | 1008.1 |
| 20260509220114 | 87 | 42 | 0.0 | 0.9 | 0.00 | 0.00 | 0.00 | 81 | 1008.1 |
| 20260509215550 | 88 | 42 | 0.0 | 0.9 | 0.00 | 0.00 | 0.00 | 80 | 1008.1 |
| 20260509215047 | 88 | 42 | 0.0 | 0.9 | 0.00 | 0.00 | 0.00 | 79 | 1008.1 |
| 20260509214513 | 88 | 70 | 0.0 | 1.7 | 0.00 | 0.00 | 0.00 | 80 | 1008.1 |
| 20260509214010 | 88 | 70 | 0.0 | 1.7 | 0.00 | 0.00 | 0.00 | 80 | 1008.1 |
| 20260509213507 | 89 | 67 | 0.0 | 3.5 | 0.00 | 0.00 | 0.00 | 77 | 1008.1 |
| 20260509213005 | 89 | 24 | 1.7 | 4.3 | 0.00 | 0.00 | 0.00 | 77 | 1008.1 |
| 20260509212501 | 90 | 56 | 0.0 | 4.3 | 0.00 | 0.00 | 0.00 | 76 | 1008.1 |
| 20260509211958 | 90 | 82 | 0.0 | 5.2 | 0.00 | 0.00 | 0.00 | 77 | 1008.1 |
| 20260509211455 | 91 | 71 | 4.3 | 5.2 | 0.00 | 0.00 | 0.00 | 75 | 1008.1 |
| 20260509210935 | 91 | 53 | 1.7 | 2.6 | 0.00 | 0.00 | 0.00 | 75 | 1008.1 |
| 20260509210432 | 90 | 109 | 0.0 | 0.0 | 0.00 | 0.00 | 0.00 | 75 | 1008.1 |
| 20260509205928 | 90 | 5 | 0.0 | 0.0 | 0.00 | 0.00 | 0.00 | 73 | 1008.1 |
| 20260509205424 | 90 | 23 | 0.0 | 0.0 | 0.00 | 0.00 | 0.00 | 76 | 1008.1 |
| 20260509204902 | 90 | 77 | 0.0 | 0.0 | 0.00 | 0.00 | 0.00 | 76 | 1008.1 |
| 20260509204359 | 90 | 40 | 0.0 | 0.0 | 0.00 | 0.00 | 0.00 | 76 | 1008.1 |
| 20260509203856 | 90 | 67 | 0.0 | 0.0 | 0.00 | 0.00 | 0.00 | 77 | 1008.1 |
| 20260509203353 | 90 | 73 | 0.0 | 3.5 | 0.00 | 0.00 | 0.00 | 78 | 1008.5 |
| 20260509202850 | 90 | 74 | 0.0 | 3.5 | 0.00 | 0.00 | 0.00 | 77 | 1008.5 |
| 20260509202315 | 90 | 339 | 0.0 | 3.5 | 0.00 | 0.00 | 0.00 | 77 | 1008.5 |
| 20260509201813 | 90 | 17 | 0.0 | 0.9 | 0.00 | 0.00 | 0.00 | 76 | 1008.5 |
| 20260509201238 | 90 | 71 | 0.0 | 0.9 | 0.00 | 0.00 | 0.00 | 78 | 1008.5 |
| 20260509200735 | 90 | 291 | 0.0 | 0.9 | 0.00 | 0.00 | 0.00 | 75 | 1008.8 |
| 20260509200213 | 90 | 327 | 0.0 | 0.9 | 0.00 | 0.00 | 0.00 | 74 | 1008.8 |
| 20260509195650 | 90 | 31 | 0.0 | 0.0 | 0.00 | 0.00 | 0.00 | 74 | 1008.8 |
| 20260509195116 | 90 | 22 | 0.0 | 0.0 | 0.00 | 0.00 | 0.00 | 72 | 1008.8 |
| 20260509194613 | 90 | 292 | 0.0 | 0.0 | 0.00 | 0.00 | 0.00 | 69 | 1008.8 |
| 20260509194110 | 90 | 292 | 0.0 | 0.0 | 0.00 | 0.00 | 0.00 | 71 | 1008.8 |
| 20260509193601 | 90 | 292 | 0.0 | 0.0 | 0.00 | 0.00 | 0.00 | 71 | 1008.8 |
| 20260509193058 | 90 | 333 | 0.0 | 0.0 | 0.00 | 0.00 | 0.00 | 70 | 1008.8 |
| 20260509192555 | 90 | 336 | 0.0 | 0.0 | 0.00 | 0.00 | 0.00 | 71 | 1008.8 |
| 20260509192052 | 90 | 70 | 0.0 | 0.0 | 0.00 | 0.00 | 0.00 | 71 | 1009.1 |
| 20260509191549 | 89 | 273 | 0.0 | 0.0 | 0.00 | 0.00 | 0.00 | 72 | 1009.1 |
| 20260509191046 | 89 | 273 | 0.0 | 0.0 | 0.00 | 0.00 | 0.00 | 71 | 1009.1 |
| 20260509190543 | 89 | 245 | 0.0 | 0.0 | 0.00 | 0.00 | 0.00 | 72 | 1009.1 |
| 20260509190040 | 89 | 261 | 0.0 | 0.0 | 0.00 | 0.00 | 0.00 | 72 | 1009.1 |
| 20260509185536 | 89 | 259 | 0.0 | 0.0 | 0.00 | 0.00 | 0.00 | 73 | 1009.1 |
| 20260509185033 | 88 | 237 | 0.0 | 0.0 | 0.00 | 0.00 | 0.00 | 74 | 1009.1 |
| 20260509184530 | 88 | 257 | 0.0 | 4.3 | 0.00 | 0.00 | 0.00 | 76 | 1009.1 |
| 20260509183955 | 87 | 306 | 0.0 | 4.3 | 0.00 | 0.00 | 0.00 | 74 | 1009.1 |
| 20260509183452 | 87 | 355 | 0.0 | 4.3 | 0.00 | 0.00 | 0.00 | 76 | 1009.5 |
| 20260509182918 | 87 | 242 | 0.0 | 4.3 | 0.00 | 0.00 | 0.00 | 78 | 1009.5 |
| 20260509182414 | 87 | 252 | 0.0 | 0.0 | 0.00 | 0.00 | 0.00 | 78 | 1009.8 |
| 20260509181911 | 86 | 279 | 0.0 | 0.0 | 0.00 | 0.00 | 0.00 | 79 | 1009.8 |
| 20260509181246 | 86 | 256 | 0.0 | 0.9 | 0.00 | 0.00 | 0.00 | 81 | 1009.8 |
| 20260509180743 | 85 | 288 | 0.0 | 0.9 | 0.00 | 0.00 | 0.00 | 83 | 1010.2 |
| 20260509180221 | 84 | 240 | 0.0 | 0.9 | 0.00 | 0.00 | 0.00 | 84 | 1010.2 |
| 20260509175718 | 84 | 249 | 0.9 | 0.9 | 0.00 | 0.00 | 0.00 | 85 | 1010.5 |
| 20260509175216 | 83 | 238 | 0.9 | 0.9 | 0.00 | 0.00 | 0.00 | 85 | 1010.5 |
| 20260509174713 | 82 | 266 | 0.0 | 0.0 | 0.00 | 0.00 | 0.00 | 88 | 1010.5 |
| 20260509174210 | 82 | 257 | 0.0 | 0.0 | 0.00 | 0.00 | 0.00 | 86 | 1010.5 |
| 20260509173707 | 83 | 257 | 0.0 | 0.9 | 0.00 | 0.00 | 0.00 | 86 | 1010.5 |
| 20260509173204 | 83 | 256 | 0.0 | 1.7 | 0.00 | 0.00 | 0.00 | 87 | 1010.8 |
| 20260509172701 | 83 | 251 | 0.0 | 1.7 | 0.00 | 0.00 | 0.00 | 87 | 1010.8 |
| 20260509172158 | 82 | 263 | 0.0 | 1.7 | 0.00 | 0.00 | 0.00 | 87 | 1010.8 |
| 20260509171655 | 82 | 252 | 0.9 | 1.7 | 0.00 | 0.00 | 0.00 | 88 | 1010.8 |
| 20260509171152 | 82 | 259 | 0.0 | 0.0 | 0.00 | 0.00 | 0.00 | 89 | 1010.8 |
| 20260509170649 | 82 | 260 | 0.0 | 0.0 | 0.00 | 0.00 | 0.00 | 89 | 1010.8 |